Elmira, NY

1:54 PM EST on November 15, 2019 (GMT -0500)
Elmira-Corning Regional

Weather History for KELM - May, 2019

Change the Weather History Date:

Friday, May 24, 2019

  Actual Average Record
Temperature  
Mean Temperature 62 °F -  
Max Temperature 72 °F 72 °F 92 °F (1964)
Min Temperature 50 °F 44 °F 27 °F (1963)
Degree Days  
Heating Degree Days 3    
Growing Degree Days 12 (Base 50)    
Moisture  
Dew Point 50 °F    
Average Humidity 63    
Maximum Humidity 89    
Minimum Humidity 53    
Precipitation  
Precipitation 0.00 in - - ()
Sea Level Pressure  
Sea Level Pressure 30.03 in    
Wind  
Wind Speed 9 mph (NNW)    
Max Wind Speed 16 mph    
Max Gust Speed 21 mph    
Visibility 10 miles    
Events      
Averages and records for this station are not official NWS values.
T = Trace of Precipitation, MM = Missing Value Source: NWS Daily Summary

Daily Weather History Graph

Daily Weather History Graph

Search for Another Location

Airport or City:

Astronomy

May. 24, 2019 Rise Set
Actual Time 5:39 AM EDT 8:30 PM EDT
Civil Twilight 5:06 AM EDT 9:03 PM EDT
Nautical Twilight 4:24 AM EDT 9:45 PM EDT
Astronomical Twilight 3:36 AM EDT 10:33 PM EDT
Moon 12:53 AM EDT (5/24) 10:38 AM EDT (5/24)
Length of Visible Light 15h 57m
Length of Day
14h 51m
Waning Gibbous, 69% of the Moon is Illuminated
May 24
Waning Gibbous
May 26
Last Quarter
Jun 3
New
Jun 10
First Quarter
Jun 17
Full

Hourly Weather History & Observations

Time (EDT) Temp. Dew Point Humidity Pressure Visibility Wind Dir Wind Speed Gust Speed Precip Events Conditions
12:53 AM 66.0 °F 48.9 °F 54% 29.88 in 10.0 mi NW 10.4 mph - N/A   Clear
1:53 AM 64.9 °F 48.9 °F 56% 29.90 in 10.0 mi North - - N/A   Overcast
2:53 AM 63.0 °F 46.9 °F 56% 29.91 in 10.0 mi Variable 4.6 mph 17.3 mph N/A   Overcast
3:53 AM 59.0 °F 46.0 °F 62% 29.92 in 10.0 mi WNW 9.2 mph - N/A   Clear
4:53 AM 57.9 °F 46.0 °F 65% 29.93 in 10.0 mi West 11.5 mph - N/A   Clear
5:53 AM 57.0 °F 46.0 °F 67% 29.94 in 10.0 mi West 10.4 mph - N/A   Clear
6:53 AM 57.9 °F 46.9 °F 67% 29.95 in 10.0 mi West 16.1 mph - N/A   Clear
7:53 AM 60.1 °F 48.0 °F 64% 29.98 in 10.0 mi WNW 9.2 mph - N/A   Clear
8:53 AM 61.0 °F 48.0 °F 62% 30.00 in 10.0 mi NW 9.2 mph 18.4 mph N/A   Clear
9:53 AM 62.1 °F 48.9 °F 62% 30.01 in 10.0 mi NW 9.2 mph - N/A   Overcast
10:53 AM 64.9 °F 50.0 °F 58% 30.02 in 10.0 mi North 8.1 mph 19.6 mph N/A   Mostly Cloudy
11:53 AM 64.9 °F 51.1 °F 61% 30.05 in 10.0 mi NW 11.5 mph 20.7 mph N/A   Overcast
12:53 PM 66.9 °F 52.0 °F 59% 30.06 in 10.0 mi North 9.2 mph 19.6 mph N/A   Mostly Cloudy
1:53 PM 69.1 °F 53.1 °F 57% 30.06 in 10.0 mi WNW 9.2 mph 18.4 mph N/A   Mostly Cloudy
2:53 PM 70.0 °F 52.0 °F 53% 30.06 in 10.0 mi North 9.2 mph - N/A   Mostly Cloudy
3:53 PM 68.0 °F 53.1 °F 59% 30.08 in 10.0 mi NNE 10.4 mph 18.4 mph N/A   Overcast
4:53 PM 70.0 °F 53.1 °F 55% 30.08 in 10.0 mi NE 10.4 mph - N/A   Scattered Clouds
5:53 PM 69.1 °F 52.0 °F 54% 30.10 in 10.0 mi NE 10.4 mph - N/A   Scattered Clouds
6:53 PM 64.9 °F 52.0 °F 63% 30.12 in 10.0 mi NNE 8.1 mph - N/A   Clear
7:53 PM 63.0 °F 51.1 °F 65% 30.12 in 10.0 mi NNE 6.9 mph - N/A   Clear
8:53 PM 62.1 °F 51.1 °F 67% 30.13 in 10.0 mi ENE 6.9 mph - N/A   Clear
9:53 PM 59.0 °F 51.1 °F 75% 30.14 in 10.0 mi ENE 6.9 mph - N/A   Clear
10:53 PM 54.0 °F 48.9 °F 83% 30.16 in 10.0 mi Calm Calm - N/A   Clear
11:53 PM 50.0 °F 46.9 °F 89% 30.18 in 10.0 mi Calm Calm - N/A   Clear